[Iaude] MPEC G131: 2024 GK2 [a=2.45,e=0.58,i=1.4,H=25.8]

mpec at cfa.harvard.edu mpec at cfa.harvard.edu
Wed Apr 10 07:17:14 EDT 2024


M.P.E.C. 2024-G131                               Issued 2024 April 10, 11:15 UT

     The Minor Planet Electronic Circulars contain information on unusual
         minor planets, routine data on comets and natural satellites,
         and occasional editorial announcements.  They are published
    on behalf of Division F of the International Astronomical Union by the
          Minor Planet Center, Smithsonian Astrophysical Observatory,
                          Cambridge, MA 02138, U.S.A.
			  
             Prepared using the Tamkin Foundation Computer Network

                              MPC at CFA.HARVARD.EDU
            URL https://www.minorplanetcenter.net/    ISSN 1523-6714

                                    2024 GK2                                    


Observations:
     K24G02K* C2024 04 01.42517412 59 47.920+00 49 31.39         21.45wXEG131F52
     K24G02K  C2024 04 01.44915712 59 52.803+00 49 03.30         22.57wXEG131F52
     K24G02K  C2024 04 01.46114512 59 55.301+00 48 49.60         22.03wXEG131F52
     K24G02K  C2024 04 02.46801013 03 55.087+00 28 08.31         22.35GVEG131F51
     K24G02K  C2024 04 02.46882913 03 55.270+00 28 07.31         22.05GVEG131F51
     K24G02K  C2024 04 09.40545613 42 09.724-02 59 29.76         21.35GVEG131V00
     K24G02K  C2024 04 09.41108013 42 11.984-02 59 43.22         21.55GVEG131V00
     K24G02K  C2024 04 09.41668913 42 14.281-02 59 56.65         21.37GVEG131V00
     K24G02K  C2024 04 09.42229413 42 16.589-03 00 10.19         21.14GVEG131V00
     K24G02K KC2024 04 09.46214 13 42 32.99 -03 01 46.2          21.0 RVEG131291
     K24G02K KC2024 04 09.46734 13 42 35.17 -03 01 58.6          21.2 RVEG131291
     K24G02K KC2024 04 09.47255 13 42 37.32 -03 02 10.9          21.5 RVEG131291
     K24G02K  C2024 04 10.23115413 48 28.198-03 34 01.25         20.5 GVEG131H01
     K24G02K  C2024 04 10.23709913 48 30.822-03 34 16.58         20.8 GVEG131H01
     K24G02K  C2024 04 10.24788313 48 35.543-03 34 44.88         21.1 GVEG131H01
     K24G02K  C2024 04 10.25403513 48 38.258-03 35 00.94         20.9 GVEG131H01
     K24G02K KC2024 04 10.36383 13 49 26.85 -03 39 45.4                VEG131691
     K24G02K KC2024 04 10.37299 13 49 30.92 -03 40 09.9          21.0 RVEG131691
     K24G02K KC2024 04 10.38215 13 49 34.97 -03 40 33.8          21.0 RVEG131691

Observer details:
291 LPL/Spacewatch II.  Observer C. Lejoly.  1.8-m f/2.7 reflector + CCD.
691 Steward Observatory, Kitt Peak-Spacewatch.  Observer R. A. Mastaler.
    0.9-m f/3 reflector + CCD.
F51 Pan-STARRS 1, Haleakala.  Observers J. Herman, T. Lowe, P. Minguez, A.
    Schultz, I. Smith.  Measurers K. Chambers, T. de Boer, J. Fairlamb, H.
    Gao, M. Huber, C.-C. Lin, E. Magnier, Y. Ramanjooloo, R. Wainscoat, R.
    Weryk.  1.8-m Ritchey-Chretien + CCD.
F52 Pan-STARRS 2, Haleakala.  Observers J. Herman, T. Lowe, P. Minguez, A.
    Schultz, I. Smith.  Measurers K. Chambers, T. de Boer, J. Fairlamb, H.
    Gao, M. Huber, C.-C. Lin, E. Magnier, Y. Ramanjooloo, R. Wainscoat, R.
    Weryk.  1.8-m Ritchey-Chretien + CCD.
H01 Magdalena Ridge Observatory, Socorro.  Observers W. H. Ryan, E. V. Ryan.
    Measurer W. H. Ryan.  2.4-m f/8.9 Ritchey-Chretien + CCD.
V00 Kitt Peak-Bok.  Observer R. A. Mastaler.  Measurers M. J. Brucker, C. E.
    Woodward, T. Beuden, V. F. Carvajal, D. Fay, J. B. Fazekas, D. C. Fuls, A.
    R. Gibbs, H. Groeller, J. K. Hogan, R. A. Kowalski, S. M. Larson, C.
    Lejoly, G. J. Leonard, R. A. Mastaler, R. S. McMillan, D. Rankin, R. L.
    Seaman, F. C. Shelly, K. W. Wierzchos.  2.25-m reflector + 4x4K mosaic
    CCD.

Orbital elements:
2024 GK2                                                 Earth MOID = 0.0275 AU
Epoch 2024 Mar. 31.0 TT = JDT 2460400.5                 Veres                   
M 350.42014              (2000.0)            P               Q                  
n   0.25743151     Peri.  184.29400     -0.62277429     +0.78220663             
a   2.4473434      Node    47.18812     -0.71712851     -0.56175106             
e   0.5758724      Incl.    1.36408     -0.31285599     -0.26942261             
P   3.83           H   25.83          G   0.15           U   9                  
Residuals in seconds of arc
240401 F52  0.4-  0.0     240409 V00  0.1-  0.1+    240410 H01  0.2-  0.0
240401 F52  0.3-  0.1+    240409 V00  0.1+  0.0     240410 H01  0.0   0.0
240401 F52  0.6+  0.5+    240409 291  0.3-  0.2-    240410 691  0.2-  0.3+
240402 F51  0.0   0.2-    240409 291  0.1-  0.0     240410 691  0.2+  0.2-
240402 F51  0.0   0.1-    240409 291  0.5-  0.2+    240410 691  0.3+  0.1-
240409 V00  0.2+  0.0     240410 H01  0.1+  0.2-
240409 V00  0.3-  0.0     240410 H01  0.1+  0.1+

Ephemeris:
2024 GK2                 a,e,i = 2.45, 0.58, 1                   q = 1.0380
Date    TT    R. A. (2000) Decl.     Delta      r    Elong.  Phase     V
2024 03 11    12 15 05.3 +04 00 36   0.2691  1.2576   167.6     9.8    24.1
...
2024 03 26    12 40 06.3 +02 25 38   0.1695  1.1660   173.2     5.8    22.8
...
2024 04 03    13 06 09.8 +00 16 52   0.1257  1.1247   173.0     6.2    22.1
...
2024 04 09    13 39 17.9 -02 42 35   0.09753 1.0981   171.5     7.7    21.5
2024 04 10    13 46 37.8 -03 23 08   0.09333 1.0941   170.9     8.3    21.5
2024 04 11    13 54 37.5 -04 07 25   0.08929 1.0902   170.1     9.1    21.4
...
2024 04 17    15 00 14.3 -09 59 14   0.06948 1.0695   160.4    18.3    21.1
...
2024 04 25    17 18 26.1 -19 05 04   0.06090 1.0496   134.6    43.0    21.5
...
2024 05 10    20 31 41.4 -20 52 26   0.09797 1.0385   104.4    70.3    23.3

M. P. C. Staff               (C) Copyright 2024 MPC           M.P.E.C. 2024-G131





More information about the Iaude mailing list